Washington, USA · Corporation

Jurisdiction: Washington, USA
Register: Washington Secretary of State

This dataset includes over 1.16 million corporations and business entities registered with the Washington Secretary of State. Each corporation registration contains business name, address, register agent, entity status, officers and incorporation date.

KIRKLAND · Search Result

Corporation Name Office Address Agent Start Date
SKUNKWORKS LLC 5210 Lake Washington Blvd Ne Apt 204, Kirkland, WA 98033-7330 ALEXA BOCKMIER 2020-07-17
WELKIN LLC 2082 Market St, Kirkland, WA 98033-4944 WELKIN LLC 2020-06-30
BRIGHT INTERNATIONAL LLC 9736 Ne 119th Way Apt E213, Kirkland, WA 98034-7085 SAMANTHA BRIGHT 2020-06-22
QUENN ANNE HOUSE LLC 5400 Carillon Pt, Kirkland, WA 98033-7357 ROBERT SMALLFOOT 2020-06-22
EF OPERATING LLC 10499 Bradford Rd Unit 102, Littleton, CO 80127-6418 JAKE NOLTE 2020-06-22
QONIIVENTURES LLC 13013 79th Pl Ne, Kirkland, WA 98034-2549 QONIIVENTURES, LLC 2020-06-22
SR EASTLAKE LLC 123 Lake St S Ste B1, Kirkland, WA 98033-6401 JASON SCOTT 2020-06-22
PAVER CONSTRUCTION AND TREES SERVICES B.V.J. LLC 23240 88th Ave S Apt V101, Kent, WA 98031-3191 ADMYN LLC. 2020-06-19
RESTITUTE ORBIS, INC. 4725 108th Ave Ne, Kirkland, WA 98033-7737 RICHARD KRAUS 2020-06-19
HC GOLDPARK LLC 7415 124th Ave Ne, Kirkland, WA 98033-8264 LIN HAN 2020-06-19
ALPINE LIVING LLC 9201 Ne Juanita Dr Apt 103, Kirkland, WA 98034-6126 ANNA GALAEVA 2020-06-19
MUZTAGH TRADING COMPANY LLC 6905 119th Ave Ne, Kirkland, WA 98033-8418 KAMRAN AHSAN 2020-06-19
MATTHEW D LORENZ LLC 721 4th Ave # 2304, Kirkland, WA 98033-9997 MATTHEW LORENZ 2020-06-19
YIFANG REDMOND LLC 8145 161st Ave Ne, Redmond, WA 98052-3806 JINGYU SUN 2020-06-19
SM CAPITAL, LLC 7525 Se 24th St Ste 630, Mercer Island, WA 98040-2300 SPENCER MUELLER 2020-06-19
PRAGMATIC DESIGN LLC 13325 88th Pl Ne, Kirkland, WA 98034-2630 RAN WANG 2020-06-19
QUAIL COTTAGE, LLC 10510 Northup Way Ste 300, Kirkland, WA 98033-7928 DON CARLIN 2020-06-18
ES CHEM LLC 421 13th Ave W, Kirkland, WA 98033-5311 YAQING SUN 2020-06-18
CABINS AT THE FARM LLC 10829 Ne 68th St Ste B, Kirkland, WA 98033-4006 AUSTIN ROUPE 2020-06-18
ROMO LANDSCAPING LLC 11230 Ne 132nd St Apt C203, Kirkland, WA 98034-4761 LUIS FELIPE ROMO ROMERO 2020-06-18
INVIRO-CLEAN, LLC 7321 126th Ave Ne, Kirkland, WA 98033-8323 PETER SCHAAF 2020-06-17
HONU PERSPECTIVE, LLC 8021 124th Ave Ne, Kirkland, WA 98033-8019 BLAKE ANDERSON 2020-06-17
FRONTAI LLC 10032 Ne 38th Ct, Kirkland, WA 98033-7880 SHU HUANG 2020-06-17
SOFTRANS GROUP INC. 11615 Ne 155th St, Kirkland, WA 98034-4659 BORIS CAPATINA 2020-06-17
MILL STREET LODGES LLC 9411 110th Pl Ne, Kirkland, WA 98033-4205 CHRISTOPHER HALL 2020-06-16
CODY MOLNER REAL ESTATE PROFESSIONAL LIMITED LIABILITY COMPANY 11109 Slater Ave Ne Ste 200a, Kirkland, WA 98033-8843 CODY MOLNER REAL ESTATE PLLC 2020-06-16
QUINCEY MOON LLC 8512 122nd Ave Ne # 259, Kirkland, WA 98033-5831 K NGO 2020-06-16
ATLAS PHYSIOWORKS LLC 13410 Highway 99 Ste 205, Everett, WA 98204-5454 DANIEL BEEMAN 2020-06-16
D2A CONSULTING LLC 11225 Ne 68th St Apt 3, Kirkland, WA 98033-4001 DEMETRIO DAMBROSI 2020-06-16
JELLY JAZZ CORPORATION 14510 124th Ave Ne, Kirkland, WA 98034-1271 RAQUEL JAZMIN BECERRA OCHOA 2020-06-16
KLAC, LLC 13048 Holmes Point Dr Ne, Kirkland, WA 98034-1666 KLAC, LLC 2020-06-16
TWILIGHT DIGITAL, INC 12726 Ne 103rd Pl, Kirkland, WA 98033-5228 JAMES KLAPPENBACH 2020-06-15
TCG CONSTRUCTION, LLC 805 Kirkland Ave Ste 200, Kirkland, WA 98033-8150 THE CORDILLERA GROUP 2020-06-15
JUMP SCARE STUDIOS, LLC 9628 Ne 136th St, Kirkland, WA 98034-1817 KELLY WAHLUND 2020-06-15
PM LIFESTYLE, LLC 6401 Lake Wa Blvd Ne Apt 301, Kirkland, WA 98033-6878 PEGGY MURAKAMI 2020-06-15
CAMERICA LLC 10929 102nd Ave Ne, Kirkland, WA 98033-4427 CAMERON MAIN 2020-06-12
OASIS 5960 LLC 8208 Ne 115th Way, Kirkland, WA 98034-3506 SHARON MONCADA 2020-06-12
LOLA HAIR DESIGN, LLC 11719 114th Pl Ne, Kirkland, WA 98034-7026 LOLA KASSAMALI 2020-06-11
THOMAS GIL HODGES, DVM, PLLC 9102 171st Ave Se, Snohomish, WA 98290-6121 SCHNEIDER LAW AND ESCROW, PLLC 2020-06-11
SUSTAIN BY SAMANTHA LLC 750 State St S Apt E, Kirkland, WA 98033-3606 SAMANTHA DOHERTY 2020-06-11
SOLUVIAM CAPITAL LLC 13728 97th Ave Ne, Kirkland, WA 98034-1874 NEIL ROTTA 2020-06-10
BETTER VIEW TREE SERVICE LLC 11001 122nd Ln Ne Apt S145, Kirkland, WA 98033-4697 MARIO RODRIGUEZ MACEDO 2020-06-10
UNREADABLE RECORDS LLC 10721 124th Ave Ne, Kirkland, WA 98033-4624 JOSHUA HERRERA 2020-06-10
MANBAWA PROPERTIES LLC 12204 Ne 103rd Ln, Kirkland, WA 98033-8845 MANAGER 2020-06-10
BRIDGES TO HOPE: PRISON COLLEGE ACCESS 1120 2nd St, Kirkland, WA 98033-5547 CLAUDIA JENSEN 2020-06-09
MIGNON INCESSANT GROUP LLC 8324 Ne 143rd St, Kirkland, WA 98034-5080 MIGNON MALICDEM 2020-06-09
COLLINGE ARMS LLC 10054 116th Ave Ne, Kirkland, WA 98033-5150 SHAWN COLLINGE 2020-06-09
PENDRELL HOLICITY HOLDINGS CORPORATION 2300 Carillon Pt, Kirkland, WA 98033-7445 JOE VIRALDO 2020-06-09
NEXT UP LLC 402 10th St Apt F301, Kirkland, WA 98033-8139 DIRIKC TROTTER 2020-06-08
BITWORKERS STUDIO LLC 11629 Ne 74th St, Kirkland, WA 98033-8113 TIM MCCONNELL 2020-06-08
GRACE PLACE MI LLC 10604 Ne 38th Pl Ste 215, Kirkland, WA 98033-7932 IMAGINE HOUSING 2020-06-08
CADENCE KIRKLAND, LLC 317 4th St, Kirkland, WA 98033-6213 BLAKE LANZ 2020-06-05
3RD MILLENNIUM PARTNERS 5671 Santa Teresa Blvd Ste 216, San Jose, CA 95123-6512 RON BRANCH 2020-06-05
JERAD'S ALUMINUM POLISHING LLC 9744 132nd Ave Ne, Kirkland, WA 98033-5222 JERAD FOSKETT 2020-06-05
BULLELK LLC 502 State Ave Ste 101, Marysville, WA 98270-4572 RICK WHITNEY 2020-06-04
PACIFIC GENERAL SOLUTIONS LLC 11453 79th Way Ne, Kirkland, WA 98034-5849 WOO CHO 2020-06-04
OWEN WEALTH MANAGEMENT LLC 4319 Lake Washington Blvd Ne Apt 4211, Kirkland, WA 98033-7935 COREY OWEN 2020-06-03
THE BREWING SAVAGE, LLC 12815 Ne 124th St Ste I, Kirkland, WA 98034-8313 LAYKEN SAVAGE 2020-06-03
FUNCTOR TECHNOLOGIES, LLC 12117 Ne 142nd St, Kirkland, WA 98034-1409 IRFAN HAMID 2020-06-03
SLIMBOX & CO LLC 9750 Ne 120th Pl Ste B5, Kirkland, WA 98034-4282 ADRIANA PEREZCHICA 2020-06-03
BLH GROUP LLC 8107 126th Pl Ne, Kirkland, WA 98033-8054 BEAU HEIMDAHL 2020-06-01
TARUN APEKSHA PROPERTIES LLC 10191 134th Pl Ne, Kirkland, WA 98033-4743 MANAGER 2020-06-01
NW POWER CONSULTING, LLC 14450 91st Ave Ne, Kirkland, WA 98034-5142 LAWRENCE J. BECKER 2020-05-29
SUSAN FREDRICKSON PLLC 12207 105th Ave Ne, Kirkland, WA 98034-3814 SUSAN FREDRICKSON 2020-05-28
MMRE PROPERTIES, LLC 1626 5th Pl, Kirkland, WA 98033-5643 MMRE PROPERTIES, LLC 2020-05-28
ALDEN'S CHEESEBOARDS LLC 1030 14th Pl W, Kirkland, WA 98033-4801 ALDEN LEE 2020-05-28
SHOP ALEXANDRA INTERIORS, LLC 10116 Ne 68th St Apt E202, Kirkland, WA 98033-6979 ALEXANDRA BURSCH 2020-05-28
ROYA NUTRITION & WELLNESS, LLC 13216 121st Ave Ne, Kirkland, WA 98034-2145 ROYA SOLEYMANI 2020-05-28
AACKS, LLC 9732 Slater Ave Ne, Kirkland, WA 98033-5805 AARON SPRING 2020-05-27
ROWLANDA CAWTHON & ASSOCIATES, LLC 5517 113th Pl Ne Apt 56, Kirkland, WA 98033-7548 ROWLANDA CAWTHON & ASSOCIATES 2020-05-27
ENKI LABS LLC 625 10th Ave, Kirkland, WA 98033-5613 MATTHEW FISHER 2020-05-27
1 CORINTHIANS 4:2, LLC 12306 Ne 144th St, Kirkland, WA 98034-4503 DAVID ODOM 2020-05-27
BIGSKY INFORMATION SECURITY LLC 14543 119th Ave Ne, Kirkland, WA 98034-4601 BENJAMIN RIDGWAY 2020-05-27
SCULPT DAILY LLC 13020 Ne 73rd St, Kirkland, WA 98033-8310 CHARLENE FLEMING 2020-05-27
PLANT POT REPEAT LLC 518 3rd Ave S, Kirkland, WA 98033-3607 JORDAN ROBB 2020-05-27
ORION SKYS LLC 753 State St S, Kirkland, WA 98033-6624 DAWN DERISO 2020-05-27
HOLLY TIPP MAKEUP LLC 8330 Ne 143rd St, Kirkland, WA 98034-5080 HOLLY BYERSDORF 2020-05-26
F&T FIX IT AND REPAIR LLC 10007 Ne 123rd St Apt C, Kirkland, WA 98034-6716 FARHAD TAHASSONI 2020-05-26
NORTHSHORE 7 ENTERPRISES, LLC 538 11th Ave W, Kirkland, WA 98033-4833 GREGORY LACOMBE 2020-05-26
BETHANY WALLER, ND, PLLC 12615 100th Ln Ne, Kirkland, WA 98034-8832 BETHANY WALLER 2020-05-26
MIRAKLE COSMETICS LLC 300 Delaware Ave Ste 210a, Wilmington, DE 19801-6601 MURPHY BISHOP 2020-05-26
BELLEVUE ONE, LLC 1027 3rd St, Kirkland, WA 98033-5567 RODERICK CHAVEZ 2020-05-22
ADE LLP 12619 Juanita Dr Ne, Kirkland, WA 98034-2564 PARTNER 2020-05-22
PEABAWA LLC 9805 Ne 116th St # A192, Kirkland, WA 98034-4245 MICHELLE SCHROEDER 2020-05-21
STANLEY EXPLORERS, LLC 905 Lake St S Apt 102, Kirkland, WA 98033-6428 SHERRI ANN STANLEY 2020-05-21
AIR FLYING PARTNERS LLC 319 Lake St S, Kirkland, WA 98033-6415 JOHN HAMILTON 2020-05-21
EPPERSTONE HOMES LLC 625 13th Ave W, Kirkland, WA 98033-4830 DANIEL BRACEGIRDLE 2020-05-21
ALLYSON MONGAN LLC 3933 Lake Washington Blvd Ne Ste 100, Kirkland, WA 98033-7806 ALLYSON MONGAN 2020-05-21
REWALI, INC. 701 8th Ave, Kirkland, WA 98033-5649 REWALI INC 2020-05-21
RHC-LLC LIMITED LIABILITY CO. 11723 Ne 142nd St, Kirkland, WA 98034-1150 DANIEL REUSTER 2020-05-20
JPW MARKETING, LLC 9618 Observation Dr, Kirkland, WA 98033-5106 JENNIFER WANG 2020-05-20
IFUIWILL LLC 211 Kirkland Ave Apt 201, Kirkland, WA 98033-6551 PETER MANSOUR 2020-05-20
SIDETRACK.AI, INC. 1843 3rd St, Kirkland, WA 98033-4917 SIDETRACK.AI INC 2020-05-20
SILKA STUDIO LLC 14532 114th Ave Ne, Kirkland, WA 98034-1033 JESSICA PUENTE 2020-05-19
PNW INVESTORS LLC 11411 Ne 124th St Ste 110, Kirkland, WA 98034-4341 REID DEVELOPMENT GROUP 2020-05-19
CARTESIAN REALTY LLC 10638 116th Ave Ne, Kirkland, WA 98033-5018 MILAD ZOLFAGHARI 2020-05-19
CLASSAVA, LLC 12330 Ne 8th St Ste 202, Bellevue, WA 98005-3187 JASON SCOPPA 2020-05-18
REHAB BUILDING CO. INC 18150 S Figueroa St, Gardena, CA 90248-4215 REHAB BUILDING CO. INC 2020-05-18
VECTOR V LLC 11335 Ne 122nd Way Ste 105, Kirkland, WA 98034-6933 TYLER LITZENBERGER 2020-05-15
R8 FARMS LLC 1424 Se Broadway Ave, College Place, WA 99324-1515 T5 MANAGEMENT COMPANY 2020-05-15